Regional Weather Roundup
Issued by NWS

Home | Current Version | Previous Version | Text Only | Print | Product List | Glossary Off
Versions: 1 2 3 4 5 6 7 8 9 10 11 12 13 14 15 16 17 18 19 20 21 22 23 24 25 26 27 28 29 30 31 32 33 34 35 36 37 38 39 40 41 42 43 44 45 46 47 48 49 50

000
ASUS43 KMPX 262010
RWRMN
WEATHER ROUNDUP FOR MINNESOTA
NATIONAL WEATHER SERVICE TWIN CITIES/CHANHASSEN MN
200 PM CST WED NOV 26 2014


NOTE: "FAIR" INDICATES FEW OR NO CLOUDS BELOW 12,000 FEET WITH NO
SIGNIFICANT WEATHER AND/OR OBSTRUCTIONS TO VISIBILITY. N/A MEANS
CURRENT SKY AND/OR WEATHER CONDITIONS ARE NOT AVAILABLE.

MNZ060>063-068>070-262100-
   Twin Cities Metro

CITY           SKY/WX    TMP DP  RH WIND       PRES   REMARKS
TWIN CITIES    LGT SNOW  25  20  81 N9        30.20R WCI  15
ST PAUL        CLOUDY    25  20  81 N12       30.21S HAZE    WCI  14
CRYSTAL        CLOUDY    26  17  68 N9        30.19R WCI  17
BLAINE         CLOUDY    27  21  80 MISG      30.19R
LAKEVILLE      LGT SNOW  25  21  86 N5        30.18R WCI  19
EDEN PRAIRIE   CLOUDY    26  20  77 N9        30.18R WCI  17
SOUTH ST PAUL  MIX PCPN  27  22  83 N7        30.19R WCI  19
LAKE ELMO      MIX PCPN  27  21  80 N8        30.19S WCI  18
$$
MNZ001>005-007-008-013>017-022>024-027-028-262100-
   Northwest Minnesota

CITY           SKY/WX    TMP DP  RH WIND       PRES   REMARKS
BEMIDJI        SUNNY      7  -8  51 N10       30.29S WCI  -7
HALLOCK        SUNNY      0  -9  65 N14G21    30.47R WCI -19
ROSEAU         SUNNY      3  -9  55 N7        30.40R WCI  -9
WARROAD        SUNNY      1  -8  66 NW5       30.39R WCI  -8
THIEF RVR FALL SUNNY      1  -6  71 NW14      30.39R WCI -17
CROOKSTON      SUNNY      1  -4  78 N16       30.45R WCI -18
FOSSTON        SUNNY      7  -6  56 N10       30.36R WCI  -8
DETROIT LAKES  MOSUNNY    9   0  66 N17       30.33R WCI -10
MOORHEAD       MOSUNNY    3   0  85 N18       30.42R WCI -17
PARK RAPIDS    PTSUNNY   12  -1  56 N12       30.26R WCI  -2
MAHNOMEN       FAIR       4  -4  67 N14       30.36R WCI -13
$$
MNZ006-009>011-018-025>026-262100-
   North Central Minnesota

CITY           SKY/WX    TMP DP  RH WIND       PRES   REMARKS
BAUDETTE       SUNNY      0  -9  65 NW13      30.35R WCI -18
FLAG ISLAND    SUNNY      0  -9  65 NW9       30.38R WCI -16
INTL FALLS     SUNNY      7  -5  57 N10       30.31R WCI  -8
WASKISH        SUNNY      7  -2  66 CALM      30.33S
BIG FORK       SUNNY     12  -2  52 NW7       30.26S WCI   2
LONGVILLE      SUNNY     16   3  57 W8        30.26S WCI   5
GRAND RAPIDS   PTSUNNY   14   3  62 N13       30.23R WCI   0
CRANE LAKE     SUNNY     10  -4  52 N3        30.28S
ORR            SUNNY     10  -6  48 NW7       30.23R WCI   0
COOK           PTSUNNY   12   3  67 NW6       30.24R WCI   3
WALKER         FAIR      10  -7  46 N7        30.28R WCI   0
$$
MNZ012-019>021-037-262100-
   Northeast Minnesota

CITY           SKY/WX    TMP DP  RH WIND       PRES   REMARKS
DULUTH         LGT SNOW  18   8  65 NW13      30.17S WCI   5
ELY            PTSUNNY   12   5  73 N6        30.20R WCI   3
HIBBING        PTSUNNY   15   3  59 NW13      30.22R WCI   1
EVELETH        MOSUNNY   18   9  68 NW12      30.22R WCI   5
DULUTH HARBOR  MOSUNNY   21  10  63 NW13G18   30.24S WCI   9
TWO HARBORS    CLOUDY    23  12  63 N3        30.18R
SILVER BAY     FLURRIES  21   9  58 NW5       30.17S WCI  15
GRAND MARAIS     N/A     21   8  57 N14G22    30.20S WCI   8
G MARAIS ARPRT LGT SNOW  10   3  72 NW10      30.12S WCI  -3
$$
MNZ029>031-032-039>041-046>048-054>057-064-262100-
   West Central Minnesota

CITY           SKY/WX    TMP DP  RH WIND       PRES   REMARKS
FERGUS FALLS   MOSUNNY   10   0  61 N14G21    30.36R WCI  -5
WHEATON        PTSUNNY    7   1  78 NW20G25   30.37S WCI -13
MORRIS         PTSUNNY   12   7  79 NW20G25   30.29R WCI  -6
ALEXANDRIA     PTSUNNY   18   9  68 NW9G18    30.24R WCI   7
ELBOW LAKE     PTSUNNY   12   5  73 NW17      30.30R WCI  -5
WADENA         CLOUDY    16   7  67 N12       30.26R WCI   3
GLENWOOD       SUNNY     21  12  68 NW13      30.24R WCI   9
APPLETON       PTSUNNY   12   7  79 NW18      30.32R WCI  -5
BENSON         CLOUDY    16  10  79 N17       30.28R WCI   0
ORTONVILLE     PTSUNNY   10   3  72 N18       30.32R WCI  -8
MADISON        PTSUNNY   14   9  79 NW21      30.32R WCI  -4
WILLMAR        CLOUDY    21  16  79 N13       30.26R WCI   9
$$
MNZ033>034-036-042>043-049>051-058-059-262100-
   Central Minnesota

CITY           SKY/WX    TMP DP  RH WIND       PRES   REMARKS
ST CLOUD       CLOUDY    24  14  65 N14       30.22R WCI  12
SAUK CENTRE    FAIR      19  11  70 N12       30.24R WCI   7
PAYNESVILLE    CLOUDY    19  14  81 NW9       30.24R WCI   8
AITKIN         SUNNY     23   9  54 N7        30.21R WCI  15
PINE RIVER     SUNNY     16   5  62 N10       30.28R WCI   3
BRAINERD       MOSUNNY   17   7  64 N15       30.24R WCI   2
STAPLES        CLOUDY    16   5  62 N10       30.25R WCI   3
LONG PRAIRIE   FAIR      19  10  68 NW12      30.24R WCI   7
LITTLE FALLS   MOSUNNY   21  10  63 N5        30.23S WCI  15
LITCHFIELD     CLOUDY    25  19  80 N12       30.22R WCI  14
BUFFALO        CLOUDY    25  17  72 N8        30.22R WCI  16
MAPLE LAKE     CLOUDY    25  19  77 N9        30.22R WCI  16
$$
MNZ037-044-045-052-053-262100-
   East Central Minnesota

CITY           SKY/WX    TMP DP  RH WIND       PRES   REMARKS
PRINCETON      CLOUDY    25  18  74 NW8       30.21R WCI  16
MORA           PTSUNNY   27  16  63 N7        30.22R WCI  19
CAMBRIDGE      CLOUDY    27  16  63 N6        30.19R WCI  20
RUSH CITY      CLOUDY    25  17  70 N9        30.20S WCI  15
MOOSE LAKE     MOSUNNY   21  10  63 N7        30.20R WCI  13
HINCKLEY       CLOUDY    25  18  74 N9        30.20S WCI  15
CLOQUET        PTSUNNY   19   9  63 N8        30.19S WCI   9
MCGREGOR       MOSUNNY   21  10  63 NW14      30.22R WCI   8
$$
MNZ071>073-080-081-089-090-097-098-262100-
   Southwest Minnesota

CITY           SKY/WX    TMP DP  RH WIND       PRES   REMARKS
MONTEVIDEO     CLOUDY    14   9  79 N21       30.30R WCI  -4
GRANITE FALLS  CLOUDY    16  11  83 NW15G21   30.30R WCI   1
CANBY          LGT SNOW  12   8  81 NW14      30.32R WCI  -3
MARSHALL       CLOUDY    12   7  79 NW22      30.27R WCI  -7
REDWOOD FALLS  CLOUDY    20  15  81 NW17      30.24R WCI   5
OLIVIA         CLOUDY    25  19  80 N15       30.24R WCI  12
PIPESTONE      LGT SNOW  16  12  86 N12G18    30.22R WCI   3
WINDOM         CLOUDY    18  14  86 NW22      30.20R FOG     WCI   0
WORTHINGTON    CLOUDY    18  14  86 N22       30.20R WCI   0
JACKSON        LGT SNOW  21  18  86 NW17G28   30.18R WCI   7
TRACY          LGT SNOW  15  11  84 NW22      30.25R WCI  -3
SLAYTON        CLOUDY    16  13  89 NW18      30.22R FOG     WCI  -1
$$
MNZ065>067-074>077-082>085-091>093-262100-
   South Central Minnesota

CITY           SKY/WX    TMP DP  RH WIND       PRES   REMARKS
MANKATO        CLOUDY    25  19  80 N10       30.18R WCI  15
NEW ULM        MOSUNNY   25  19  80 N7G16     30.20R WCI  17
ST JAMES       LGT SNOW  27  23  86 NW15      30.20R WCI  15
FAIRMONT       CLOUDY    25  19  80 N16       30.16R WCI  12
GLENCOE        PTSUNNY   25  21  83 N12       30.21R WCI  15
FARIBAULT      LGT SNOW  25  21  86 N7        30.18R WCI  17
OWATONNA       LGT SNOW  25  21  86 N8        30.16R VSB 3/4 WCI  16
WASECA         SNOW      25  19  80 N9        30.18R VSB 1/2 WCI  15
ALBERT LEA     SNOW      25  21  86 NE9       30.13R VSB 1/2 WCI  15
$$
MNZ078>079-086>088-094>096-262100-
   Southeast Minnesota

CITY           SKY/WX    TMP DP  RH WIND       PRES   REMARKS
ROCHESTER      LGT SNOW  24  21  88 NE9       30.14R VSB 3/4 WCI  14
RED WING       LGT SNOW  27  21  80 NE6       30.17S WCI  20
STANTON        LGT SNOW  26  22  85 N7        30.17R WCI  19
DODGE CENTER   LGT SNOW  25  23  93 N6        30.13S WCI  18
WINONA         LGT SNOW  28  25  86 CALM      30.18R VSB 1
AUSTIN         SNOW      25  21  86 NE9       30.12R VSB 1/2 WCI  15
PRESTON        LGT SNOW  24  20  87 N9        30.13R WCI  14
$$
ABBREVIATIONS USED IN REMARKS
   TC - TEMPERATURES IN CELSIUS
  WCI - WIND CHILL INDEX
   HX - HEAT INDEX
  VSB - VISIBILITY
$$


USA.gov is the U.S. government's official web portal to all federal, state and local government web resources and services.